Moab, UT

2:22 PM MST on December 10, 2019 (GMT -0700)
Canyonlands

Weather History for KCNY - June, 2019

Change the Weather History Date:

Tuesday, June 11, 2019

  Actual Average Record
Temperature  
Mean Temperature 69 °F 71 °F  
Max Temperature 90 °F 89 °F 106 °F (1953)
Min Temperature 48 °F 54 °F 43 °F (1929)
Degree Days  
Heating Degree Days 0 1  
Month to date heating degree days 6 13  
Since 1 June heating degree days 6 13  
Since 1 July heating degree days 5809 5573  
Cooling Degree Days 4 7  
Month to date cooling degree days 60 65  
Year to date cooling degree days 75 129  
Since 1 June cooling degree days 60 65  
Growing Degree Days 18 (Base 50)    
Moisture  
Dew Point 23 °F    
Average Humidity 20    
Maximum Humidity 31    
Minimum Humidity 8    
Precipitation  
Precipitation 0.00 in 0.02 in 0.60 in (1970)
Month to date precipitation T 0.18  
Year to date precipitation 5.98 3.38  
Sea Level Pressure  
Sea Level Pressure 30.02 in    
Wind  
Wind Speed 6 mph (WNW)    
Max Wind Speed 20 mph    
Max Gust Speed 34 mph    
Visibility 10 miles    
Events      
T = Trace of Precipitation, MM = Missing Value Source: NWS Daily Summary

Daily Weather History Graph

Daily Weather History Graph

Search for Another Location

Airport or City:

Astronomy

Jun. 11, 2019 Rise Set
Actual Time 5:53 AM MDT 8:43 PM MDT
Civil Twilight 5:21 AM MDT 9:15 PM MDT
Nautical Twilight 4:41 AM MDT 9:55 PM MDT
Astronomical Twilight 3:56 AM MDT 10:41 PM MDT
Moon 2:51 PM MDT (6/11) 2:34 AM MDT (6/11)
Length of Visible Light 15h 53m
Length of Day
14h 50m
Waxing Gibbous, 67% of the Moon is Illuminated
Jun 11
Waxing Gibbous
Jun 17
Full
Jun 25
Last Quarter
Jul 2
New
Jul 9
First Quarter

Hourly Weather History & Observations

Time (MDT) Temp. Dew Point Humidity Pressure Visibility Wind Dir Wind Speed Gust Speed Precip Events Conditions
12:53 AM 57.9 °F 19.0 °F 22% 30.06 in 10.0 mi Calm Calm - N/A   Clear
1:53 AM 57.0 °F 18.0 °F 22% 30.05 in 10.0 mi NW 8.1 mph - N/A   Clear
2:53 AM 52.0 °F 21.0 °F 30% 30.06 in 10.0 mi Calm Calm - N/A   Clear
3:53 AM 52.0 °F 18.0 °F 26% 30.06 in 10.0 mi Calm Calm - N/A   Clear
4:53 AM 48.0 °F 19.0 °F 32% 30.09 in 10.0 mi Calm Calm - N/A   Clear
5:53 AM 51.1 °F 21.0 °F 31% 30.09 in 10.0 mi Calm Calm - N/A   Clear
6:53 AM 53.1 °F 21.0 °F 29% 30.11 in 10.0 mi Calm Calm - N/A   Clear
7:53 AM 63.0 °F 24.1 °F 23% 30.10 in 10.0 mi Calm Calm - N/A   Clear
8:53 AM 69.1 °F 25.0 °F 19% 30.11 in 10.0 mi SE 3.5 mph - N/A   Clear
9:53 AM 73.9 °F 21.9 °F 14% 30.11 in 10.0 mi Variable 3.5 mph - N/A   Clear
10:53 AM 79.0 °F 23.0 °F 13% 30.09 in 10.0 mi NW 6.9 mph - N/A   Clear
11:53 AM 81.0 °F 23.0 °F 12% 30.08 in 10.0 mi WNW 10.4 mph 20.7 mph N/A   Clear
12:53 PM 82.0 °F 21.9 °F 11% 30.06 in 10.0 mi West 6.9 mph 18.4 mph N/A   Clear
1:53 PM 86.0 °F 21.0 °F 9% 30.02 in 10.0 mi NNW 9.2 mph 23.0 mph N/A   Clear
2:53 PM 86.0 °F 21.9 °F 10% 30.01 in 10.0 mi Variable 4.6 mph 21.9 mph N/A   Clear
3:53 PM 88.0 °F 21.0 °F 9% 29.99 in 10.0 mi WNW 9.2 mph 23.0 mph N/A   Clear
4:53 PM 89.1 °F 21.0 °F 8% 29.97 in 10.0 mi West 16.1 mph 20.7 mph N/A   Clear
5:53 PM 88.0 °F 21.9 °F 9% 29.95 in 10.0 mi West 9.2 mph 20.7 mph N/A   Clear
6:53 PM 88.0 °F 21.9 °F 9% 29.93 in 10.0 mi West 10.4 mph - N/A   Clear
7:53 PM 84.9 °F 23.0 °F 10% 29.92 in 10.0 mi West 8.1 mph - N/A   Clear
8:53 PM 79.0 °F 24.1 °F 13% 29.92 in 10.0 mi West 6.9 mph - N/A   Clear
9:53 PM 78.1 °F 27.0 °F 15% 29.92 in 10.0 mi WNW 9.2 mph - N/A   Clear
10:53 PM 78.1 °F 30.0 °F 17% 29.93 in 10.0 mi WNW 13.8 mph - N/A   Clear
11:53 PM 73.9 °F 32.0 °F 21% 29.94 in 10.0 mi WNW 12.7 mph - N/A   Clear